sat.trackr.live / text

‹ back to catalog

STARLINK-2450

NORAD 48113 · 2021-027X

PAYLOAD ACTIVE UNKNOWN

§ Identity

Operator
Country
US
Launch date
2021-04-07
Launch site
AFETR
Launch vehicle
Mass (kg)
RCS (m²)

Purposes: comms

External: N2YO · Heavens-Above · Gunter

§ Orbital elements

Epoch: 2026-05-25T02:04:41.242944Z

Period
94.01 min
Inclination
53.1585°
Eccentricity
0.0001386
Mean motion
15.31706282 rev/d
Perigee alt
469.8 km
Apogee alt
471.7 km
Semi-major
6,848.9 km
B*
4.0759e-5
RAAN
169.9752°
Arg perigee
79.5542°
Mean anomaly
280.5616°
Rev number
28,420

§ Raw data

STARLINK-24501 48113U 21027X   26145.08658846  .00000900  00000+0  40759-4 0  99992 48113  53.1585 169.9752 0001386  79.5542 280.5616 15.31706282284204

JSON: /api/v1/satellites/48113 · /tle

For live sub-satellite position, see the globe view (requires WebGL).

§ Visibility from observer

Set your observer location to see the next 7 days of passes ≥ 10°. The values pass through the URL so the page stays shareable.

No JS? Fill the form by hand. The geolocation button needs JavaScript.